Location: Dampvalley
(47.9094°N, 6.1967°E)
Time: 06:32:43
(UTC+00:00)

ALOS - Pass Details

Date: 05 March 2021
Orbit: 683 x 685 km, 97.9° (Epoch: 18 April)

Event Time Altitude Azimuth Distance (km) Brightness Sun altitude
Rises 03:05:10 0° 24° (NNE) 3,062 6.3 -30.6°
Reaches altitude 10° 03:07:47 10° 37° (NE) 2,141 5.6 -30.2°
Maximum altitude 03:11:39 25° 93° (E) 1,365 4.3 -29.7°
Enters shadow 03:14:48 13° 143° (SE) 1,905 4.6 -29.2°
